Location: Colebrook
(42.0017°N, 73.0973°W)
Time: 08:44:42
(UTC-04:00)

Amateur Radio Satellites - All Passes

Search period start: 24 October 2014 08:14
Search period end: 25 October 2014 08:14
Location: Colebrook, 42.0017°N, 73.0973°W

Satellite Date Start Highest point End Downlink Frequencies (MHz)
Time Altitude Azimuth
STRAND 1 24 Oct 08:29:39 08:31:38 12° 271° (W) 08:33:38 ?
Saudisat 1A 24 Oct 08:40:31 08:44:45 46° 308° (NW) 08:49:01 436.775 MHz
RS-15 24 Oct 09:28:24 09:37:45 32° 255° (WSW) 09:47:28 29.354 - 29.394 USB, Beacon 29.352 USB
MaSat-1 24 Oct 09:40:49 09:43:27 71° 244° (WSW) 09:45:51 437.345 MHz
HO-68 24 Oct 09:45:16 09:52:24 61° 102° (ESE) 09:59:29 435.675 MHz FM
PANSAT 24 Oct 09:54:03 09:54:56 11° 182° (S) 09:55:48 not established
Oscar 11 24 Oct 09:55:57 09:59:32 25° 95° (E) 10:03:07 145.825 FM, Beacon 2401.500 USB
ZACube-1 24 Oct 10:43:07 10:47:02 34° 97° (E) 10:50:51 437.345 MHz
UKube-1 24 Oct 10:49:18 10:53:41 79° 285° (WNW) 10:58:02 145.840 MHz, 145.915 MHz
KITSAT 1 24 Oct 10:50:09 10:54:36 16° 100° (E) 10:59:03 435.175 FM
Sapphire 24 Oct 11:19:44 11:21:47 12° 35° (NE) 11:23:50 437.095 MHz 1200 baud AX-25 AFSK
FUNcube-1 24 Oct 11:27:48 11:32:05 73° 285° (WNW) 11:36:14 145.950 - 145.970 MHz USB
Oscar 11 24 Oct 11:31:59 11:35:41 28° 291° (WNW) 11:39:22 145.825 FM, Beacon 2401.500 USB
HO-68 24 Oct 11:33:44 11:39:38 29° 301° (WNW) 11:45:31 435.675 MHz FM
PCSat 24 Oct 11:41:23 11:44:57 17° 41° (NE) 11:48:29 145.825 MHz
Oscar 16 24 Oct 12:12:47 12:15:58 17° 61° (ENE) 12:19:10 437.025 USB, Beacon 2401.1428
ZACube-1 24 Oct 12:20:01 12:23:12 21° 294° (WNW) 12:26:20 437.345 MHz
JAS-1B 24 Oct 12:22:20 12:26:17 19° 60° (ENE) 12:30:09 435.800 - 435.900 CW/SSB
SO-50 24 Oct 12:29:23 12:33:04 25° 113° (ESE) 12:36:50 436.795 FM
Uribyol 2 24 Oct 12:33:15 12:34:47 11° 57° (ENE) 12:36:20 436.500 FM
ITAMSAT 1 24 Oct 12:38:44 12:40:38 12° 57° (ENE) 12:42:32 435.822 SSB
KITSAT 1 24 Oct 12:40:40 12:48:44 82° 119° (ESE) 12:56:51 435.175 FM
Sapphire 24 Oct 13:01:04 13:06:27 56° 56° (ENE) 13:11:46 437.095 MHz 1200 baud AX-25 AFSK
Oscar 19 24 Oct 13:04:13 13:09:07 46° 70° (ENE) 13:14:02 437.125 CW, 437.150 USB
ISS 24 Oct 13:11:36 13:14:53 64° 142° (SE) 13:18:12 145.800 FM
AO-27 24 Oct 13:21:11 13:25:37 29° 66° (ENE) 13:30:04 436.795 MHz FM
PCSat 24 Oct 13:23:40 13:29:08 89° 241° (WSW) 13:34:33 145.825 MHz
Oscar 10/S400 24 Oct 13:30:31 13:47:59 35° 152° (SSE) 14:08:26 145.825 - 145.975 CW/USB, Beacon 145.810 USB
AO-7 24 Oct 13:38:56 13:41:36 12° 41° (NE) 13:44:15 29.400 - 29.500 MHz
AO-Echo 24 Oct 13:48:59 13:53:47 61° 73° (ENE) 13:58:46 ?
Oscar 16 24 Oct 13:49:38 13:54:46 67° 258° (WSW) 13:59:55 437.025 USB, Beacon 2401.1428
UOSAT-12 24 Oct 13:56:32 13:59:43 19° 110° (ESE) 14:02:56 437.025 FM, 437.400 FM
Uribyol 2 24 Oct 14:08:10 14:13:23 80° 74° (ENE) 14:18:39 436.500 FM
SO-50 24 Oct 14:09:12 14:13:26 38° 311° (NW) 14:17:47 436.795 FM
JAS-1B 24 Oct 14:10:37 14:16:33 60° 258° (WSW) 14:22:10 435.800 - 435.900 CW/SSB
ITAMSAT 1 24 Oct 14:14:05 14:19:18 85° 75° (ENE) 14:24:33 435.822 SSB
Gurwin Techsat 1B 24 Oct 14:31:07 14:36:21 64° 73° (ENE) 14:41:37 435.225 FM
KITSAT 1 24 Oct 14:38:16 14:45:03 29° 321° (NW) 14:51:52 435.175 FM
TMSAT-1 24 Oct 14:42:42 14:47:54 61° 72° (ENE) 14:53:08 436.925 FM
Oscar 19 24 Oct 14:44:45 14:48:40 22° 267° (W) 14:52:36 437.125 CW, 437.150 USB
Sapphire 24 Oct 14:45:27 14:49:25 21° 254° (WSW) 14:53:22 437.095 MHz 1200 baud AX-25 AFSK
ISS 24 Oct 14:49:00 14:51:49 25° 340° (NNW) 14:54:39 145.800 FM
AO-27 24 Oct 15:00:13 15:04:59 36° 263° (W) 15:09:48 436.795 MHz FM
PCSat 24 Oct 15:09:49 15:11:42 12° 258° (WSW) 15:13:34 145.825 MHz
AO-7 24 Oct 15:24:34 15:32:25 50° 63° (ENE) 15:40:18 29.400 - 29.500 MHz
Saudisat 1A 24 Oct 15:27:45 15:31:10 21° 43° (NE) 15:34:35 436.775 MHz
AO-Echo 24 Oct 15:30:13 15:33:01 15° 270° (W) 15:35:53 ?
Uosat F 24 Oct 15:34:12 15:38:27 29° 66° (ENE) 15:42:43 435.120 FM
UOSAT-12 24 Oct 15:34:53 15:39:26 54° 308° (NW) 15:44:05 437.025 FM, 437.400 FM
Uribyol 2 24 Oct 15:51:20 15:53:28 12° 271° (W) 15:55:36 436.500 FM
ITAMSAT 1 24 Oct 15:57:44 15:59:26 12° 272° (W) 16:01:08 435.822 SSB
Gurwin Techsat 1B 24 Oct 16:13:31 16:16:46 16° 269° (W) 16:20:01 435.225 FM
JAS-2 24 Oct 16:18:29 16:23:12 24° 59° (ENE) 16:28:21 435.800 - 435.900 CW/SSB, 435.910 FM
TMSAT-1 24 Oct 16:24:48 16:28:13 17° 269° (W) 16:31:39 436.925 FM
ISS 24 Oct 16:27:15 16:29:22 16° 0° (N) 16:31:29 145.800 FM
KITSAT 1 24 Oct 16:40:37 16:43:46 12° 350° (N) 16:46:57 435.175 FM
Hamsat 24 Oct 17:01:42 17:05:04 24° 68° (ENE) 17:08:25 145.90 MHz
Saudisat 1A 24 Oct 17:06:43 17:11:01 51° 242° (WSW) 17:15:17 436.775 MHz
Uosat F 24 Oct 17:12:33 17:17:06 35° 263° (W) 17:21:42 435.120 FM
OPAL 24 Oct 17:14:14 17:17:47 19° 95° (E) 17:21:19 ?
AO-7 24 Oct 17:17:50 17:25:21 38° 262° (W) 17:32:56 29.400 - 29.500 MHz
UOSAT-12 24 Oct 17:19:16 17:20:40 11° 328° (NNW) 17:22:04 437.025 FM, 437.400 FM
JAS-2 24 Oct 18:01:49 18:07:37 61° 260° (W) 18:14:15 435.800 - 435.900 CW/SSB, 435.910 FM
ISS 24 Oct 18:04:01 18:06:54 26° 21° (NNE) 18:09:46 145.800 FM
SO-67 24 Oct 18:29:15 18:32:04 24° 70° (ENE) 18:34:53 435.3500 MHz FM
Hamsat 24 Oct 18:37:12 18:40:53 29° 264° (W) 18:44:34 145.90 MHz
KITSAT 1 24 Oct 18:38:54 18:43:26 16° 21° (NNE) 18:47:57 435.175 FM
OPAL 24 Oct 18:52:09 18:56:56 49° 291° (WNW) 19:01:40 ?
STRAND 1 24 Oct 18:57:33 19:01:50 26° 95° (E) 19:06:06 ?
ISS 24 Oct 19:40:29 19:43:47 58° 219° (SW) 19:47:04 145.800 FM
SO-67 24 Oct 20:02:32 20:05:01 19° 266° (W) 20:07:30 435.3500 MHz FM
UKube-1 24 Oct 20:13:34 20:13:41 10° 59° (ENE) 20:13:48 145.840 MHz, 145.915 MHz
HO-68 24 Oct 20:14:04 20:20:50 48° 66° (ENE) 20:27:38 435.675 MHz FM
KITSAT 1 24 Oct 20:33:39 20:41:19 44° 48° (NE) 20:48:55 435.175 FM
STRAND 1 24 Oct 20:36:21 20:41:07 39° 291° (WNW) 20:45:51 ?
Oscar 11 24 Oct 20:51:42 20:55:02 22° 67° (ENE) 20:58:22 145.825 FM, Beacon 2401.500 USB
FUNcube-1 24 Oct 20:52:01 20:52:45 10° 60° (ENE) 20:53:29 145.950 - 145.970 MHz USB
SO-50 24 Oct 20:59:47 21:04:04 31° 47° (NE) 21:08:23 436.795 FM
AO-40 24 Oct 21:27:46 23:16:18 25° 220° (SW) 02:43:38 Beacon 2401.320
RS-15 24 Oct 21:39:37 21:49:43 44° 109° (ESE) 21:59:43 29.354 - 29.394 USB, Beacon 29.352 USB
ZACube-1 24 Oct 21:39:41 21:43:45 32° 70° (ENE) 21:47:46 437.345 MHz
UKube-1 24 Oct 21:44:49 21:49:10 86° 257° (WSW) 21:53:34 145.840 MHz, 145.915 MHz
HO-68 24 Oct 22:02:18 22:08:40 34° 264° (W) 22:15:06 435.675 MHz FM
FUNcube-1 24 Oct 22:23:50 22:28:26 89° 259° (WSW) 22:32:59 145.950 - 145.970 MHz USB
UOSAT-12 24 Oct 22:24:38 22:28:20 22° 42° (NE) 22:32:00 437.025 FM, 437.400 FM
Oscar 11 24 Oct 22:27:05 22:31:01 34° 263° (W) 22:34:58 145.825 FM, Beacon 2401.500 USB
KITSAT 1 24 Oct 22:29:09 22:36:47 48° 248° (WSW) 22:44:23 435.175 FM
SO-50 24 Oct 22:40:13 22:44:42 38° 244° (WSW) 22:49:13 436.795 FM
ZACube-1 24 Oct 23:16:19 23:20:08 26° 265° (W) 23:23:55 437.345 MHz
MaSat-1 24 Oct 23:17:38 23:21:10 27° 110° (ESE) 23:24:27 437.345 MHz
RS-15 24 Oct 23:51:01 00:01:45 57° 312° (NW) 00:12:32 29.354 - 29.394 USB, Beacon 29.352 USB
UOSAT-12 25 Oct 00:04:12 00:08:49 56° 241° (WSW) 00:13:21 437.025 FM, 437.400 FM
MaSat-1 25 Oct 00:53:22 00:56:46 25° 303° (WNW) 00:59:54 437.345 MHz
Oscar 19 25 Oct 01:16:44 01:19:42 15° 91° (E) 01:22:40 437.125 CW, 437.150 USB
JAS-1B 25 Oct 01:52:06 01:58:18 36° 98° (E) 02:05:30 435.800 - 435.900 CW/SSB
AO-Echo 25 Oct 01:56:25 02:00:24 21° 92° (E) 02:04:21 ?
Oscar 16 25 Oct 02:01:05 02:05:56 42° 98° (E) 02:10:45 437.025 USB, Beacon 2401.1428
RS-15 25 Oct 02:08:48 02:17:13 24° 343° (NNW) 02:25:45 29.354 - 29.394 USB, Beacon 29.352 USB
Uribyol 2 25 Oct 02:21:07 02:25:32 27° 95° (E) 02:29:55 436.500 FM
ITAMSAT 1 25 Oct 02:27:05 02:31:37 29° 96° (E) 02:36:07 435.822 SSB
Gurwin Techsat 1B 25 Oct 02:47:33 02:51:53 25° 94° (E) 02:56:10 435.225 FM
Oscar 19 25 Oct 02:54:25 02:59:29 64° 287° (WNW) 03:04:31 437.125 CW, 437.150 USB
TMSAT-1 25 Oct 02:58:49 03:03:01 23° 93° (E) 03:07:11 436.925 FM
AO-27 25 Oct 03:12:16 03:17:32 79° 103° (ESE) 03:22:45 436.795 MHz FM
AO-7 25 Oct 03:28:18 03:31:56 13° 87° (E) 03:35:33 29.400 - 29.500 MHz
AO-Echo 25 Oct 03:34:16 03:39:25 51° 289° (WNW) 03:44:32 ?
Oscar 16 25 Oct 03:40:57 03:45:03 25° 295° (WNW) 03:49:07 437.025 USB, Beacon 2401.1428
JAS-1B 25 Oct 03:42:46 03:48:56 44° 292° (WNW) 03:56:11 435.800 - 435.900 CW/SSB
Sapphire 25 Oct 03:43:16 03:48:25 47° 113° (ESE) 03:53:36 437.095 MHz 1200 baud AX-25 AFSK
Uribyol 2 25 Oct 04:00:17 04:05:04 37° 292° (WNW) 04:09:48 436.500 FM
PCSat 25 Oct 04:05:29 04:10:53 80° 118° (ESE) 04:16:20 145.825 MHz
ITAMSAT 1 25 Oct 04:06:24 04:11:08 35° 292° (WNW) 04:15:49 435.822 SSB
RS-15 25 Oct 04:26:06 04:34:47 25° 19° (NNE) 04:43:38 29.354 - 29.394 USB, Beacon 29.352 USB
Gurwin Techsat 1B 25 Oct 04:27:00 04:32:00 43° 291° (WNW) 04:36:58 435.225 FM
OPAL 25 Oct 04:28:58 04:33:42 39° 67° (ENE) 04:38:25 ?
TMSAT-1 25 Oct 04:38:05 04:43:07 45° 290° (WNW) 04:48:08 436.925 FM
AO-27 25 Oct 04:53:34 04:56:22 15° 301° (WNW) 04:59:10 436.795 MHz FM
JAS-2 25 Oct 05:10:32 05:16:41 25° 90° (E) 05:22:47 435.800 - 435.900 CW/SSB, 435.910 FM
AO-7 25 Oct 05:17:42 05:26:03 73° 106° (ESE) 05:34:22 29.400 - 29.500 MHz
Uosat F 25 Oct 05:19:13 05:24:16 70° 103° (ESE) 05:29:17 435.120 FM
Sapphire 25 Oct 05:27:26 05:32:03 28° 312° (NW) 05:36:42 437.095 MHz 1200 baud AX-25 AFSK
PCSat 25 Oct 05:51:08 05:54:57 19° 318° (NW) 05:58:47 145.825 MHz
OPAL 25 Oct 06:08:22 06:12:39 26° 263° (W) 06:16:56 ?
STRAND 1 25 Oct 06:13:43 06:18:27 39° 69° (ENE) 06:23:14 ?
Hamsat 25 Oct 06:21:45 06:25:47 44° 99° (E) 06:29:49 145.90 MHz
RS-15 25 Oct 06:39:05 06:50:06 60° 49° (NE) 07:01:31 29.354 - 29.394 USB, Beacon 29.352 USB
JAS-2 25 Oct 06:54:28 07:02:13 73° 288° (WNW) 07:09:58 435.800 - 435.900 CW/SSB, 435.910 FM
Uosat F 25 Oct 06:59:32 07:02:28 16° 300° (WNW) 07:05:24 435.120 FM
AO-7 25 Oct 07:11:28 07:18:07 28° 305° (NW) 07:24:47 29.400 - 29.500 MHz
Saudisat 1A 25 Oct 07:13:24 07:17:24 36° 116° (ESE) 07:21:27 436.775 MHz
SO-67 25 Oct 07:24:34 07:27:31 26° 96° (E) 07:30:27 435.3500 MHz FM
STRAND 1 25 Oct 07:53:32 07:57:44 26° 265° (W) 08:01:59 ?
Hamsat 25 Oct 07:58:44 08:01:23 17° 295° (WNW) 08:04:03 145.90 MHz
